Year,Month,Day,Hour,Minute,Value (Times are PST for temperature in C)
2019,05,27,00,00,11.80
2019,05,27,00,01,11.80
2019,05,27,00,02,11.80
2019,05,27,00,03,11.80
2019,05,27,00,04,11.80
2019,05,27,00,05,11.80
2019,05,27,00,06,11.80
2019,05,27,00,07,11.80
2019,05,27,00,08,11.80
2019,05,27,00,09,11.80
2019,05,27,00,10,11.80
2019,05,27,00,11,11.80
2019,05,27,00,12,11.70
2019,05,27,00,13,11.70
2019,05,27,00,14,11.70
2019,05,27,00,15,11.70
2019,05,27,00,16,11.70
2019,05,27,00,17,11.70
2019,05,27,00,18,11.70
2019,05,27,00,19,11.70
2019,05,27,00,20,11.70
2019,05,27,00,21,11.70
2019,05,27,00,22,11.70
2019,05,27,00,23,11.70
2019,05,27,00,24,11.70
2019,05,27,00,25,11.60
2019,05,27,00,26,11.60
2019,05,27,00,27,11.60
2019,05,27,00,28,11.60
2019,05,27,00,29,11.60
2019,05,27,00,30,11.60
2019,05,27,00,31,11.60
2019,05,27,00,32,11.60
2019,05,27,00,33,11.60
2019,05,27,00,34,11.60
2019,05,27,00,35,11.60
2019,05,27,00,36,11.50
2019,05,27,00,37,11.50
2019,05,27,00,38,11.50
2019,05,27,00,39,11.40
2019,05,27,00,40,11.40
2019,05,27,00,41,11.40
2019,05,27,00,42,11.40
2019,05,27,00,43,11.40
2019,05,27,00,44,11.40
2019,05,27,00,45,11.30
2019,05,27,00,46,11.30
2019,05,27,00,47,11.30
2019,05,27,00,48,11.30
2019,05,27,00,49,11.30
2019,05,27,00,50,11.40
2019,05,27,00,51,11.40
2019,05,27,00,52,11.40
2019,05,27,00,53,11.40
2019,05,27,00,54,11.30
2019,05,27,00,55,11.30
2019,05,27,00,56,11.30
2019,05,27,00,57,11.30
2019,05,27,00,58,11.30
2019,05,27,00,59,11.30
2019,05,27,01,00,11.30
2019,05,27,01,01,11.30
2019,05,27,01,02,11.20
2019,05,27,01,03,11.20
2019,05,27,01,04,11.20
2019,05,27,01,05,11.20
2019,05,27,01,06,11.20
2019,05,27,01,07,11.20
2019,05,27,01,08,11.20
2019,05,27,01,09,11.20
2019,05,27,01,10,11.20
2019,05,27,01,11,11.10
2019,05,27,01,12,11.10
2019,05,27,01,13,11.10
2019,05,27,01,14,11.10
2019,05,27,01,15,11.20
2019,05,27,01,16,11.20
2019,05,27,01,17,11.20
2019,05,27,01,18,11.20
2019,05,27,01,19,11.20
2019,05,27,01,20,11.20
2019,05,27,01,21,11.20
2019,05,27,01,22,11.20
2019,05,27,01,23,11.20
2019,05,27,01,24,11.20
2019,05,27,01,25,11.10
2019,05,27,01,26,11.10
2019,05,27,01,27,11.10
2019,05,27,01,28,11.10
2019,05,27,01,29,11.10
2019,05,27,01,30,11.10
2019,05,27,01,31,11.10
2019,05,27,01,32,11.10
2019,05,27,01,33,11.10
2019,05,27,01,34,11.10
2019,05,27,01,35,11.10
2019,05,27,01,36,11.10
2019,05,27,01,37,11.10
2019,05,27,01,38,11.10
2019,05,27,01,39,11.10
2019,05,27,01,40,11.10
2019,05,27,01,41,11.10
2019,05,27,01,42,11.00
2019,05,27,01,43,11.00
2019,05,27,01,44,11.00
2019,05,27,01,45,11.00
2019,05,27,01,46,11.00
2019,05,27,01,47,11.00
2019,05,27,01,48,11.00
2019,05,27,01,49,10.90
2019,05,27,01,50,10.90
2019,05,27,01,51,10.90
2019,05,27,01,52,10.90
2019,05,27,01,53,10.90
2019,05,27,01,54,10.90
2019,05,27,01,55,10.90
2019,05,27,01,56,10.90
2019,05,27,01,57,10.80
2019,05,27,01,58,10.80
2019,05,27,01,59,10.80
2019,05,27,02,00,10.80
2019,05,27,02,01,10.80
2019,05,27,02,02,10.80
2019,05,27,02,03,10.80
2019,05,27,02,04,10.80
2019,05,27,02,05,10.80
2019,05,27,02,06,10.80
2019,05,27,02,07,10.80
2019,05,27,02,08,10.80
2019,05,27,02,09,10.80
2019,05,27,02,10,10.80
2019,05,27,02,11,10.80
2019,05,27,02,12,10.80
2019,05,27,02,13,10.80
2019,05,27,02,14,10.80
2019,05,27,02,15,10.80
2019,05,27,02,16,10.80
2019,05,27,02,17,10.80
2019,05,27,02,18,10.80
2019,05,27,02,19,10.80
2019,05,27,02,20,10.80
2019,05,27,02,21,10.80
2019,05,27,02,22,10.80
2019,05,27,02,23,10.80
2019,05,27,02,24,10.80
2019,05,27,02,25,10.80
2019,05,27,02,26,10.80
2019,05,27,02,27,10.80
2019,05,27,02,28,10.80
2019,05,27,02,29,10.80
2019,05,27,02,30,10.80
2019,05,27,02,31,10.70
2019,05,27,02,32,10.70
2019,05,27,02,33,10.70
2019,05,27,02,34,10.70
2019,05,27,02,35,10.70
2019,05,27,02,36,10.70
2019,05,27,02,37,10.70
2019,05,27,02,38,10.70
2019,05,27,02,39,10.70
2019,05,27,02,40,10.70
2019,05,27,02,41,10.70
2019,05,27,02,42,10.70
2019,05,27,02,43,10.70
2019,05,27,02,44,10.70
2019,05,27,02,45,10.70
2019,05,27,02,46,10.70
2019,05,27,02,47,10.70
2019,05,27,02,48,10.70
2019,05,27,02,49,10.70
2019,05,27,02,50,10.70
2019,05,27,02,51,10.70
2019,05,27,02,52,10.70
2019,05,27,02,53,10.70
2019,05,27,02,54,10.70
2019,05,27,02,55,10.60
2019,05,27,02,56,10.70
2019,05,27,02,57,10.70
2019,05,27,02,58,10.70
2019,05,27,02,59,10.70
2019,05,27,03,00,10.70
2019,05,27,03,01,10.70
2019,05,27,03,02,10.70
2019,05,27,03,03,10.70
2019,05,27,03,04,10.60
2019,05,27,03,05,10.60
2019,05,27,03,06,10.60
2019,05,27,03,07,10.60
2019,05,27,03,08,10.60
2019,05,27,03,09,10.60
2019,05,27,03,10,10.60
2019,05,27,03,11,10.60
2019,05,27,03,12,10.60
2019,05,27,03,13,10.60
2019,05,27,03,14,10.60
2019,05,27,03,15,10.50
2019,05,27,03,16,10.50
2019,05,27,03,17,10.50
2019,05,27,03,18,10.50
2019,05,27,03,19,10.50
2019,05,27,03,20,10.50
2019,05,27,03,21,10.40
2019,05,27,03,22,10.40
2019,05,27,03,23,10.40
2019,05,27,03,24,10.40
2019,05,27,03,25,10.40
2019,05,27,03,26,10.40
2019,05,27,03,27,10.40
2019,05,27,03,28,10.30
2019,05,27,03,29,10.30
2019,05,27,03,30,10.30
2019,05,27,03,31,10.30
2019,05,27,03,32,10.30
2019,05,27,03,33,10.30
2019,05,27,03,34,10.30
2019,05,27,03,35,10.40
2019,05,27,03,36,10.40
2019,05,27,03,37,10.40
2019,05,27,03,38,10.50
2019,05,27,03,39,10.50
2019,05,27,03,40,10.50
2019,05,27,03,41,10.60
2019,05,27,03,42,10.60
2019,05,27,03,43,10.60
2019,05,27,03,44,10.60
2019,05,27,03,45,10.60
2019,05,27,03,46,10.60
2019,05,27,03,47,10.60
2019,05,27,03,48,10.60
2019,05,27,03,49,10.60
2019,05,27,03,50,10.70
2019,05,27,03,51,10.70
2019,05,27,03,52,10.70
2019,05,27,03,53,10.70
2019,05,27,03,54,10.70
2019,05,27,03,55,10.70
2019,05,27,03,56,10.70
2019,05,27,03,57,10.70
2019,05,27,03,58,10.60
2019,05,27,03,59,10.60
2019,05,27,04,00,10.60
2019,05,27,04,01,10.60
2019,05,27,04,02,10.60
2019,05,27,04,03,10.60
2019,05,27,04,04,10.60
2019,05,27,04,05,10.60
2019,05,27,04,06,10.60
2019,05,27,04,07,10.60
2019,05,27,04,08,10.60
2019,05,27,04,09,10.60
2019,05,27,04,10,10.60
2019,05,27,04,11,10.60
2019,05,27,04,12,10.60
2019,05,27,04,13,10.60
2019,05,27,04,14,10.60
2019,05,27,04,15,10.60
2019,05,27,04,16,10.60
2019,05,27,04,17,10.60
2019,05,27,04,18,10.60
2019,05,27,04,19,10.50
2019,05,27,04,20,10.50
2019,05,27,04,21,10.50
2019,05,27,04,22,10.50
2019,05,27,04,23,10.50
2019,05,27,04,24,10.60
2019,05,27,04,25,10.60
2019,05,27,04,26,10.60
2019,05,27,04,27,10.60
2019,05,27,04,28,10.50
2019,05,27,04,29,10.60
2019,05,27,04,30,10.50
2019,05,27,04,31,10.50
2019,05,27,04,32,10.50
2019,05,27,04,33,10.50
2019,05,27,04,34,10.50
2019,05,27,04,35,10.50
2019,05,27,04,36,10.50
2019,05,27,04,37,10.50
2019,05,27,04,38,10.50
2019,05,27,04,39,10.50
2019,05,27,04,40,10.50
2019,05,27,04,41,10.50
2019,05,27,04,42,10.40
2019,05,27,04,43,10.40
2019,05,27,04,44,10.40
2019,05,27,04,45,10.40
2019,05,27,04,46,10.40
2019,05,27,04,47,10.40
2019,05,27,04,48,10.40
2019,05,27,04,49,10.40
2019,05,27,04,50,10.40
2019,05,27,04,51,10.40
2019,05,27,04,52,10.40
2019,05,27,04,53,10.50
2019,05,27,04,54,10.50
2019,05,27,04,55,10.50
2019,05,27,04,56,10.50
2019,05,27,04,57,10.50
2019,05,27,04,58,10.50
2019,05,27,04,59,10.50
2019,05,27,05,00,10.50
2019,05,27,05,01,10.50
2019,05,27,05,02,10.50
2019,05,27,05,03,10.60
2019,05,27,05,04,10.60
2019,05,27,05,05,10.60
2019,05,27,05,06,10.60
2019,05,27,05,07,10.60
2019,05,27,05,08,10.60
2019,05,27,05,09,10.70
2019,05,27,05,10,10.70
2019,05,27,05,11,10.70
2019,05,27,05,12,10.70
2019,05,27,05,13,10.70
2019,05,27,05,14,10.70
2019,05,27,05,15,10.70
2019,05,27,05,16,10.70
2019,05,27,05,17,10.70
2019,05,27,05,18,10.70
2019,05,27,05,19,10.60
2019,05,27,05,20,10.60
2019,05,27,05,21,10.60
2019,05,27,05,22,10.60
2019,05,27,05,23,10.50
2019,05,27,05,24,10.50
2019,05,27,05,25,10.50
2019,05,27,05,26,10.40
2019,05,27,05,27,10.40
2019,05,27,05,28,10.40
2019,05,27,05,29,10.40
2019,05,27,05,30,10.40
2019,05,27,05,31,10.40
2019,05,27,05,32,10.40
2019,05,27,05,33,10.40
2019,05,27,05,34,10.40
2019,05,27,05,35,10.40
2019,05,27,05,36,10.40
2019,05,27,05,37,10.40
2019,05,27,05,38,10.40
2019,05,27,05,39,10.40
2019,05,27,05,40,10.40
2019,05,27,05,41,10.40
2019,05,27,05,42,10.40
2019,05,27,05,43,10.40
2019,05,27,05,44,10.40
2019,05,27,05,45,10.40
2019,05,27,05,46,10.40
2019,05,27,05,47,10.40
2019,05,27,05,48,10.50
2019,05,27,05,49,10.50
2019,05,27,05,50,10.50
2019,05,27,05,51,10.60
2019,05,27,05,52,10.60
2019,05,27,05,53,10.60
2019,05,27,05,54,10.60
2019,05,27,05,55,10.60
2019,05,27,05,56,10.60
2019,05,27,05,57,10.60
2019,05,27,05,58,10.60
2019,05,27,05,59,10.70
2019,05,27,06,00,10.70
2019,05,27,06,01,10.70
2019,05,27,06,02,10.70
2019,05,27,06,03,10.80
2019,05,27,06,04,10.80
2019,05,27,06,05,10.80
2019,05,27,06,06,10.80
2019,05,27,06,07,10.80
2019,05,27,06,08,10.90
2019,05,27,06,09,10.90
2019,05,27,06,10,10.90
2019,05,27,06,11,10.90
2019,05,27,06,12,11.00
2019,05,27,06,13,11.00
2019,05,27,06,14,11.10
2019,05,27,06,15,11.10
2019,05,27,06,16,11.10
2019,05,27,06,17,11.10
2019,05,27,06,18,11.20
2019,05,27,06,19,11.20
2019,05,27,06,20,11.20
2019,05,27,06,21,11.30
2019,05,27,06,22,11.30
2019,05,27,06,23,11.30
2019,05,27,06,24,11.40
2019,05,27,06,25,11.40
2019,05,27,06,26,11.50
2019,05,27,06,27,11.50
2019,05,27,06,28,11.60
2019,05,27,06,29,11.60
2019,05,27,06,30,11.60
2019,05,27,06,31,11.60
2019,05,27,06,32,11.60
2019,05,27,06,33,11.60
2019,05,27,06,34,11.60
2019,05,27,06,35,11.60
2019,05,27,06,36,11.60
2019,05,27,06,37,11.60
2019,05,27,06,38,11.60
2019,05,27,06,39,11.60
2019,05,27,06,40,11.60
2019,05,27,06,41,11.70
2019,05,27,06,42,11.70
2019,05,27,06,43,11.80
2019,05,27,06,44,11.80
2019,05,27,06,45,11.80
2019,05,27,06,46,11.90
2019,05,27,06,47,11.90
2019,05,27,06,48,11.90
2019,05,27,06,49,11.90
2019,05,27,06,50,11.90
2019,05,27,06,51,11.90
2019,05,27,06,52,12.00
2019,05,27,06,53,12.00
2019,05,27,06,54,12.10
2019,05,27,06,55,12.10
2019,05,27,06,56,12.20
2019,05,27,06,57,12.20
2019,05,27,06,58,12.20
2019,05,27,06,59,12.30
2019,05,27,07,00,12.30
2019,05,27,07,01,12.40
2019,05,27,07,02,12.40
2019,05,27,07,03,12.50
2019,05,27,07,04,12.50
2019,05,27,07,05,12.50
2019,05,27,07,06,12.50
2019,05,27,07,07,12.50
2019,05,27,07,08,12.50
2019,05,27,07,09,12.50
2019,05,27,07,10,12.50
2019,05,27,07,11,12.50
2019,05,27,07,12,12.60
2019,05,27,07,13,12.60
2019,05,27,07,14,12.60
2019,05,27,07,15,12.60
2019,05,27,07,16,12.60
2019,05,27,07,17,12.70
2019,05,27,07,18,12.70
2019,05,27,07,19,12.70
2019,05,27,07,20,12.80
2019,05,27,07,21,12.80
2019,05,27,07,22,12.80
2019,05,27,07,23,12.70
2019,05,27,07,24,12.80
2019,05,27,07,25,12.70
2019,05,27,07,26,12.70
2019,05,27,07,27,12.70
2019,05,27,07,28,12.70
2019,05,27,07,29,12.70
2019,05,27,07,30,12.70
2019,05,27,07,31,12.60
2019,05,27,07,32,12.60
2019,05,27,07,33,12.60
2019,05,27,07,34,12.60
2019,05,27,07,35,12.60
2019,05,27,07,36,12.60
2019,05,27,07,37,12.60
2019,05,27,07,38,12.60
2019,05,27,07,39,12.60
2019,05,27,07,40,12.60
2019,05,27,07,41,12.60
2019,05,27,07,42,12.60
2019,05,27,07,43,12.60
2019,05,27,07,44,12.60
2019,05,27,07,45,12.60
2019,05,27,07,46,12.70
2019,05,27,07,47,12.70
2019,05,27,07,48,12.70
2019,05,27,07,49,12.80
2019,05,27,07,50,12.80
2019,05,27,07,51,12.80
2019,05,27,07,52,12.80
2019,05,27,07,53,12.80
2019,05,27,07,54,12.90
2019,05,27,07,55,12.90
2019,05,27,07,56,13.00
2019,05,27,07,57,13.00
2019,05,27,07,58,13.10
2019,05,27,07,59,13.10
2019,05,27,08,00,13.10
2019,05,27,08,01,13.20
2019,05,27,08,02,13.20
2019,05,27,08,03,13.30
2019,05,27,08,04,13.30
2019,05,27,08,05,13.30
2019,05,27,08,06,13.30
2019,05,27,08,07,13.40
2019,05,27,08,08,13.40
2019,05,27,08,09,13.50
2019,05,27,08,10,13.50
2019,05,27,08,11,13.60
2019,05,27,08,12,13.60
2019,05,27,08,13,13.70
2019,05,27,08,14,13.70
2019,05,27,08,15,13.70
2019,05,27,08,16,13.80
2019,05,27,08,17,13.80
2019,05,27,08,18,13.80
2019,05,27,08,19,13.90
2019,05,27,08,20,13.90
2019,05,27,08,21,13.90
2019,05,27,08,22,13.90
2019,05,27,08,23,13.90
2019,05,27,08,24,13.90
2019,05,27,08,25,13.90
2019,05,27,08,26,13.90
2019,05,27,08,27,13.90
2019,05,27,08,28,14.00
2019,05,27,08,29,14.00
2019,05,27,08,30,14.00
2019,05,27,08,31,14.10
2019,05,27,08,32,14.10
2019,05,27,08,33,14.20
2019,05,27,08,34,14.30
2019,05,27,08,35,14.30
2019,05,27,08,36,14.40
2019,05,27,08,37,14.40
2019,05,27,08,38,14.50
2019,05,27,08,39,14.50
2019,05,27,08,40,14.60
2019,05,27,08,41,14.70
2019,05,27,08,42,14.70
2019,05,27,08,43,14.80
2019,05,27,08,44,14.80
2019,05,27,08,45,14.90
2019,05,27,08,46,14.90
2019,05,27,08,47,15.00
2019,05,27,08,48,15.10
2019,05,27,08,49,15.10
2019,05,27,08,50,15.20
2019,05,27,08,51,15.20
2019,05,27,08,52,15.30
2019,05,27,08,53,15.30
2019,05,27,08,54,15.40
2019,05,27,08,55,15.40
2019,05,27,08,56,15.50
2019,05,27,08,57,15.50
2019,05,27,08,58,15.60
2019,05,27,08,59,15.70
2019,05,27,09,00,15.70
2019,05,27,09,01,15.70
2019,05,27,09,02,15.60
2019,05,27,09,03,15.50
2019,05,27,09,04,15.40
2019,05,27,09,05,15.30
2019,05,27,09,06,15.20
2019,05,27,09,07,15.10
2019,05,27,09,08,15.10
2019,05,27,09,09,15.00
2019,05,27,09,10,14.90
2019,05,27,09,11,14.80
2019,05,27,09,12,14.80
2019,05,27,09,13,14.70
2019,05,27,09,14,14.60
2019,05,27,09,15,14.60
2019,05,27,09,16,14.50
2019,05,27,09,17,14.50
2019,05,27,09,18,14.50
2019,05,27,09,19,14.50
2019,05,27,09,20,14.50
2019,05,27,09,21,14.50
2019,05,27,09,22,14.50
2019,05,27,09,23,14.50
2019,05,27,09,24,14.50
2019,05,27,09,25,14.50
2019,05,27,09,26,14.50
2019,05,27,09,27,14.60
2019,05,27,09,28,14.60
2019,05,27,09,29,14.60
2019,05,27,09,30,14.70
2019,05,27,09,31,14.70
2019,05,27,09,32,14.70
2019,05,27,09,33,14.80
2019,05,27,09,34,14.80
2019,05,27,09,35,14.80
2019,05,27,09,36,14.90
2019,05,27,09,37,14.90
2019,05,27,09,38,14.90
2019,05,27,09,39,15.00
2019,05,27,09,40,15.00
2019,05,27,09,41,15.10
2019,05,27,09,42,15.10
2019,05,27,09,43,15.10
2019,05,27,09,44,15.20
2019,05,27,09,45,15.20
2019,05,27,09,46,15.20
2019,05,27,09,47,15.20
2019,05,27,09,48,15.20
2019,05,27,09,49,15.10
2019,05,27,09,50,15.10
2019,05,27,09,51,15.10
2019,05,27,09,52,15.00
2019,05,27,09,53,15.00
2019,05,27,09,54,14.90
2019,05,27,09,55,14.70
2019,05,27,09,56,14.60
2019,05,27,09,57,14.50
2019,05,27,09,58,14.50
2019,05,27,09,59,14.40
2019,05,27,10,00,14.30
2019,05,27,10,01,14.30
2019,05,27,10,02,14.20
2019,05,27,10,03,14.20
2019,05,27,10,04,14.20
2019,05,27,10,05,14.10
2019,05,27,10,06,14.10
2019,05,27,10,07,14.00
2019,05,27,10,08,13.90
2019,05,27,10,09,13.90
2019,05,27,10,10,13.80
2019,05,27,10,11,13.80
2019,05,27,10,12,13.70
2019,05,27,10,13,13.70
2019,05,27,10,14,13.60
2019,05,27,10,15,13.60
2019,05,27,10,16,13.60
2019,05,27,10,17,13.60
2019,05,27,10,18,13.70
2019,05,27,10,19,13.70
2019,05,27,10,20,13.70
2019,05,27,10,21,13.60
2019,05,27,10,22,13.60
2019,05,27,10,23,13.60
2019,05,27,10,24,13.60
2019,05,27,10,25,13.60
2019,05,27,10,26,13.60
2019,05,27,10,27,13.70
2019,05,27,10,28,13.70
2019,05,27,10,29,13.80
2019,05,27,10,30,13.90
2019,05,27,10,31,13.90
2019,05,27,10,32,13.90
2019,05,27,10,33,14.00
2019,05,27,10,34,14.00
2019,05,27,10,35,14.00
2019,05,27,10,36,14.10
2019,05,27,10,37,14.10
2019,05,27,10,38,14.10
2019,05,27,10,39,14.10
2019,05,27,10,40,14.00
2019,05,27,10,41,14.00
2019,05,27,10,42,14.00
2019,05,27,10,43,14.00
2019,05,27,10,44,13.90
2019,05,27,10,45,13.80
2019,05,27,10,46,13.70
2019,05,27,10,47,13.70
2019,05,27,10,48,13.60
2019,05,27,10,49,13.60
2019,05,27,10,50,13.60
2019,05,27,10,51,13.60
2019,05,27,10,52,13.60
2019,05,27,10,53,13.60
2019,05,27,10,54,13.60
2019,05,27,10,55,13.60
2019,05,27,10,56,13.60
2019,05,27,10,57,13.60
2019,05,27,10,58,13.60
2019,05,27,10,59,13.60
2019,05,27,11,00,13.60
2019,05,27,11,01,13.60
2019,05,27,11,02,13.60
2019,05,27,11,03,13.50
2019,05,27,11,04,13.50
2019,05,27,11,05,13.40
2019,05,27,11,06,13.30
2019,05,27,11,07,13.20
2019,05,27,11,08,13.10
2019,05,27,11,09,13.10
2019,05,27,11,10,13.00
2019,05,27,11,11,12.90
2019,05,27,11,12,12.90
2019,05,27,11,13,12.90
2019,05,27,11,14,12.90
2019,05,27,11,15,12.90
2019,05,27,11,16,12.90
2019,05,27,11,17,12.80
2019,05,27,11,18,12.80
2019,05,27,11,19,12.80
2019,05,27,11,20,12.70
2019,05,27,11,21,12.70
2019,05,27,11,22,12.70
2019,05,27,11,23,12.70
2019,05,27,11,24,12.70
2019,05,27,11,25,12.70
2019,05,27,11,26,12.70
2019,05,27,11,27,12.70
2019,05,27,11,28,12.70
2019,05,27,11,29,12.70
2019,05,27,11,30,12.70
2019,05,27,11,31,12.70
2019,05,27,11,32,12.70
2019,05,27,11,33,12.70
2019,05,27,11,34,12.70
2019,05,27,11,35,12.70
2019,05,27,11,36,12.80
2019,05,27,11,37,12.80
2019,05,27,11,38,12.90
2019,05,27,11,39,13.00
2019,05,27,11,40,13.00
2019,05,27,11,41,13.00
2019,05,27,11,42,13.00
2019,05,27,11,43,12.90
2019,05,27,11,44,12.90
2019,05,27,11,45,12.90
2019,05,27,11,46,12.80
2019,05,27,11,47,12.80
2019,05,27,11,48,12.80
2019,05,27,11,49,12.80
2019,05,27,11,50,12.80
2019,05,27,11,51,12.80
2019,05,27,11,52,12.80
2019,05,27,11,53,12.80
2019,05,27,11,54,12.80
2019,05,27,11,55,12.80
2019,05,27,11,56,12.80
2019,05,27,11,57,12.80
2019,05,27,11,58,12.80
2019,05,27,11,59,12.80
2019,05,27,12,00,12.80
2019,05,27,12,01,12.80
2019,05,27,12,02,12.80
2019,05,27,12,03,12.80
2019,05,27,12,04,12.80
2019,05,27,12,05,12.80
2019,05,27,12,06,12.80
2019,05,27,12,07,12.80
2019,05,27,12,08,12.80
2019,05,27,12,09,12.80
2019,05,27,12,10,12.90
2019,05,27,12,11,12.90
2019,05,27,12,12,13.00
2019,05,27,12,13,13.10
2019,05,27,12,14,13.20
2019,05,27,12,15,13.40
2019,05,27,12,16,13.60
2019,05,27,12,17,13.90
2019,05,27,12,18,14.10
2019,05,27,12,19,14.50
2019,05,27,12,20,14.70
2019,05,27,12,21,15.00
2019,05,27,12,22,15.30
2019,05,27,12,23,15.60
2019,05,27,12,24,15.80
2019,05,27,12,25,16.00
2019,05,27,12,26,16.20
2019,05,27,12,27,16.40
2019,05,27,12,28,16.60
2019,05,27,12,29,16.70
2019,05,27,12,30,16.80
2019,05,27,12,31,16.90
2019,05,27,12,32,17.00
2019,05,27,12,33,17.00
2019,05,27,12,34,17.00
2019,05,27,12,35,17.10
2019,05,27,12,36,17.00
2019,05,27,12,37,17.00
2019,05,27,12,38,16.90
2019,05,27,12,39,16.80
2019,05,27,12,40,16.70
2019,05,27,12,41,16.60
2019,05,27,12,42,16.50
2019,05,27,12,43,16.50
2019,05,27,12,44,16.50
2019,05,27,12,45,16.50
2019,05,27,12,46,16.60
2019,05,27,12,47,16.70
2019,05,27,12,48,16.80
2019,05,27,12,49,16.90
2019,05,27,12,50,17.00
2019,05,27,12,51,17.10
2019,05,27,12,52,17.10
2019,05,27,12,53,17.00
2019,05,27,12,54,16.90
2019,05,27,12,55,16.80
2019,05,27,12,56,16.60
2019,05,27,12,57,16.50
2019,05,27,12,58,16.40
2019,05,27,12,59,16.30
2019,05,27,13,00,16.20
2019,05,27,13,01,16.10
2019,05,27,13,02,16.00
2019,05,27,13,03,15.90
2019,05,27,13,04,15.90
2019,05,27,13,05,15.90
2019,05,27,13,06,16.10
2019,05,27,13,07,16.30
2019,05,27,13,08,16.50
2019,05,27,13,09,16.80
2019,05,27,13,10,16.90
2019,05,27,13,11,17.00
2019,05,27,13,12,17.00
2019,05,27,13,13,16.90
2019,05,27,13,14,17.00
2019,05,27,13,15,17.10
2019,05,27,13,16,17.20
2019,05,27,13,17,17.30
2019,05,27,13,18,17.50
2019,05,27,13,19,17.60
2019,05,27,13,20,17.70
2019,05,27,13,21,17.80
2019,05,27,13,22,17.80
2019,05,27,13,23,17.80
2019,05,27,13,24,17.90
2019,05,27,13,25,17.90
2019,05,27,13,26,17.90
2019,05,27,13,27,18.00
2019,05,27,13,28,18.00
2019,05,27,13,29,18.00
2019,05,27,13,30,18.10
2019,05,27,13,31,18.10
2019,05,27,13,32,18.00
2019,05,27,13,33,17.90
2019,05,27,13,34,17.50
2019,05,27,13,35,16.90
2019,05,27,13,36,16.40
2019,05,27,13,37,15.90
2019,05,27,13,38,15.50
2019,05,27,13,39,15.30
2019,05,27,13,40,15.10
2019,05,27,13,41,15.00
2019,05,27,13,42,15.00
2019,05,27,13,43,15.00
2019,05,27,13,44,15.00
2019,05,27,13,45,15.10
2019,05,27,13,46,15.20
2019,05,27,13,47,15.40
2019,05,27,13,48,15.50
2019,05,27,13,49,15.70
2019,05,27,13,50,15.80
2019,05,27,13,51,15.90
2019,05,27,13,52,15.90
2019,05,27,13,53,15.80
2019,05,27,13,54,15.70
2019,05,27,13,55,15.50
2019,05,27,13,56,15.30
2019,05,27,13,57,15.10
2019,05,27,13,58,14.90
2019,05,27,13,59,14.70
2019,05,27,14,00,14.70
2019,05,27,14,01,14.60
2019,05,27,14,02,14.60
2019,05,27,14,03,14.50
2019,05,27,14,04,14.40
2019,05,27,14,05,14.30
2019,05,27,14,06,14.20
2019,05,27,14,07,14.00
2019,05,27,14,08,13.80
2019,05,27,14,09,13.70
2019,05,27,14,10,13.60
2019,05,27,14,11,13.50
2019,05,27,14,12,13.40
2019,05,27,14,13,13.30
2019,05,27,14,14,13.20
2019,05,27,14,15,13.00
2019,05,27,14,16,12.90
2019,05,27,14,17,12.80
2019,05,27,14,18,12.70
2019,05,27,14,19,12.70
2019,05,27,14,20,12.70
2019,05,27,14,21,12.70
2019,05,27,14,22,12.70
2019,05,27,14,23,12.70
2019,05,27,14,24,12.80
2019,05,27,14,25,12.90
2019,05,27,14,26,12.90
2019,05,27,14,27,12.90
2019,05,27,14,28,12.90
2019,05,27,14,29,13.00
2019,05,27,14,30,13.00
2019,05,27,14,31,13.00
2019,05,27,14,32,13.10
2019,05,27,14,33,13.10
2019,05,27,14,34,13.10
2019,05,27,14,35,13.20
2019,05,27,14,36,13.20
2019,05,27,14,37,13.20
2019,05,27,14,38,13.20
2019,05,27,14,39,13.20
2019,05,27,14,40,13.10
2019,05,27,14,41,13.10
2019,05,27,14,42,13.10
2019,05,27,14,43,13.00
2019,05,27,14,44,13.10
2019,05,27,14,45,13.10
2019,05,27,14,46,13.10
2019,05,27,14,47,13.10
2019,05,27,14,48,13.20
2019,05,27,14,49,13.20
2019,05,27,14,50,13.30
2019,05,27,14,51,13.30
2019,05,27,14,52,13.30
2019,05,27,14,53,13.30
2019,05,27,14,54,13.30
2019,05,27,14,55,13.30
2019,05,27,14,56,13.30
2019,05,27,14,57,13.30
2019,05,27,14,58,13.30
2019,05,27,14,59,13.30
2019,05,27,15,00,13.30
2019,05,27,15,01,13.30
2019,05,27,15,02,13.30
2019,05,27,15,03,13.40
2019,05,27,15,04,13.50
2019,05,27,15,05,13.60
2019,05,27,15,06,13.60
2019,05,27,15,07,13.70
2019,05,27,15,08,13.80
2019,05,27,15,09,13.90
2019,05,27,15,10,14.10
2019,05,27,15,11,14.20
2019,05,27,15,12,14.30
2019,05,27,15,13,14.60
2019,05,27,15,14,14.90
2019,05,27,15,15,15.20
2019,05,27,15,16,15.40
2019,05,27,15,17,15.70
2019,05,27,15,18,15.80
2019,05,27,15,19,16.10
2019,05,27,15,20,16.60
2019,05,27,15,21,17.50
2019,05,27,15,22,18.30
2019,05,27,15,23,18.80
2019,05,27,15,24,19.20
2019,05,27,15,25,19.60
2019,05,27,15,26,20.00
2019,05,27,15,27,20.30
2019,05,27,15,28,20.70
2019,05,27,15,29,20.90
2019,05,27,15,30,21.20
2019,05,27,15,31,21.50
2019,05,27,15,32,21.80
2019,05,27,15,33,22.10
2019,05,27,15,34,22.30
2019,05,27,15,35,22.50
2019,05,27,15,36,22.60
2019,05,27,15,37,22.70
2019,05,27,15,38,22.80
2019,05,27,15,39,22.90
2019,05,27,15,40,23.00
2019,05,27,15,41,23.10
2019,05,27,15,42,23.10
2019,05,27,15,43,23.10
2019,05,27,15,44,23.10
2019,05,27,15,45,23.10
2019,05,27,15,46,23.20
2019,05,27,15,47,23.20
2019,05,27,15,48,23.30
2019,05,27,15,49,23.40
2019,05,27,15,50,23.40
2019,05,27,15,51,23.50
2019,05,27,15,52,23.50
2019,05,27,15,53,23.60
2019,05,27,15,54,23.60
2019,05,27,15,55,23.60
2019,05,27,15,56,23.60
2019,05,27,15,57,23.60
2019,05,27,15,58,23.60
2019,05,27,15,59,23.60
2019,05,27,16,00,23.60
2019,05,27,16,01,23.60
2019,05,27,16,02,23.60
2019,05,27,16,03,23.60
2019,05,27,16,04,23.60
2019,05,27,16,05,23.60
2019,05,27,16,06,23.60
2019,05,27,16,07,23.50
2019,05,27,16,08,23.50
2019,05,27,16,09,23.50
2019,05,27,16,10,23.40
2019,05,27,16,11,23.50
2019,05,27,16,12,23.50
2019,05,27,16,13,23.50
2019,05,27,16,14,23.60
2019,05,27,16,15,23.60
2019,05,27,16,16,23.60
2019,05,27,16,17,23.70
2019,05,27,16,18,23.70
2019,05,27,16,19,23.80
2019,05,27,16,20,23.80
2019,05,27,16,21,23.90
2019,05,27,16,22,23.90
2019,05,27,16,23,23.90
2019,05,27,16,24,23.80
2019,05,27,16,25,23.80
2019,05,27,16,26,23.80
2019,05,27,16,27,23.70
2019,05,27,16,28,23.70
2019,05,27,16,29,23.70
2019,05,27,16,30,23.70
2019,05,27,16,31,23.70
2019,05,27,16,32,23.70
2019,05,27,16,33,23.70
2019,05,27,16,34,23.60
2019,05,27,16,35,23.70
2019,05,27,16,36,23.70
2019,05,27,16,37,23.70
2019,05,27,16,38,23.70
2019,05,27,16,39,23.70
2019,05,27,16,40,23.70
2019,05,27,16,41,23.70
2019,05,27,16,42,23.70
2019,05,27,16,43,23.70
2019,05,27,16,44,23.70
2019,05,27,16,45,23.70
2019,05,27,16,46,23.70
2019,05,27,16,47,23.80
2019,05,27,16,48,23.80
2019,05,27,16,49,23.80
2019,05,27,16,50,23.80
2019,05,27,16,51,23.80
2019,05,27,16,52,23.80
2019,05,27,16,53,23.70
2019,05,27,16,54,23.80
2019,05,27,16,55,23.80
2019,05,27,16,56,23.80
2019,05,27,16,57,23.80
2019,05,27,16,58,23.90
2019,05,27,16,59,23.90
2019,05,27,17,00,23.90
2019,05,27,17,01,23.80
2019,05,27,17,02,23.80
2019,05,27,17,03,23.80
2019,05,27,17,04,23.80
2019,05,27,17,05,23.80
2019,05,27,17,06,23.80
2019,05,27,17,07,23.80
2019,05,27,17,08,23.80
2019,05,27,17,09,23.80
2019,05,27,17,10,23.80
2019,05,27,17,11,23.70
2019,05,27,17,12,23.70
2019,05,27,17,13,23.70
2019,05,27,17,14,23.70
2019,05,27,17,15,23.70
2019,05,27,17,16,23.70
2019,05,27,17,17,23.70
2019,05,27,17,18,23.70
2019,05,27,17,19,23.70